Regional Weather Roundup
Issued by NWS Sioux Falls, SD

Home | Current Version | Previous Version | Graphics & Text | Print | Product List | Glossary Off
Versions: 1 2 3 4 5 6 7 8 9 10 11 12 13 14 15 16 17 18 19 20 21 22 23 24 25 26 27 28 29 30 31 32 33 34 35 36 37 38 39 40 41 42 43 44 45 46 47 48 49 50

000
ASUS43 KFSD 290810
RWRFSD

WEATHER ROUNDUP FOR SE SOUTH DAKOTA/SW MINNESOTA/NW IOWA
NATIONAL WEATHER SERVICE SIOUX FALLS SD
300 AM CDT FRI MAY 29 2015

NOTE: "FAIR" INDICATES FEW OR NO CLOUDS BELOW 12,000 FEET WITH NO
SIGNIFICANT WEATHER AND OR OBSTRUCTIONS TO VISIBILITY.


SDZ038>040-050-052>070-290900-
SOUTHEAST SOUTH DAKOTA

CITY           SKY/WX    TMP DP  RH WIND       PRES   REMARKS
BROOKINGS      CLOUDY    64  61  88 N7        29.88R
CHAMBERLAIN    CLOUDY    59  57  94 W6        29.87S
HURON            N/A    N/A N/A N/A MISG      29.82F
MADISON        CLOUDY    63  63 100 SW7       29.86S
MITCHELL       CLOUDY    64  60  87 S5        29.84S
SIOUX FALLS    CLOUDY    67  64  90 S12       29.86S
WINNER         CLOUDY    61  55  81 W13       29.89S
YANKTON        CLOUDY    64  63  94 E5        29.83F
$$

MNZ071-072-080-081-089-090-097-098-290900-
SOUTHWEST MINNESOTA

CITY           SKY/WX    TMP DP  RH WIND       PRES   REMARKS
FAIRMONT       CLOUDY    66  61  82 S13       29.89F
JACKSON        MOCLDY    64  63  94 S10G16    29.90S
LUVERNE        CLOUDY    66  63  88 S8        29.87S THUNDER
MARSHALL       CLOUDY    64  57  77 N8        29.86R
MONTEVIDEO     DRIZZLE   63  59  88 E7        29.87F
PIPESTONE      CLOUDY    64  63  94 S14       29.86S
REDWOOD FALLS  MOCLDY    65  61  87 S5        29.85S
TRACY          PTCLDY    65  63  91 S13G18    29.85S
WINDOM         MOCLDY    66  63  88 S15G23    29.87F
WORTHINGTON    CLOUDY    64  61  88 S10       29.89F
$$

IAZ001>003-012>014-020>022-031-032-NEZ013-014-SDZ071-290900-
NORTHWEST IOWA

CITY           SKY/WX    TMP DP  RH WIND       PRES   REMARKS
CHEROKEE       MOCLDY    65  64  96 S9        29.89S
DENISON        CLOUDY    66  66 100 S14G22    29.91R
ESTHERVILLE    MOCLDY    65  63  93 S13       29.89F
LE MARS        MOCLDY    66  64  94 S16       29.87F
ORANGE CITY    MOCLDY    64  61  88 S13       29.87S
SHELDON        CLOUDY    64  64 100 S13       29.86F
SIOUX CITY     LGT RAIN  67  63  87 S12       29.87F
SPENCER        MOCLDY    65  63  93 S12       29.89F
STORM LAKE     CLOUDY    64  63  94 S13       29.91F
$$

ABBREVIATIONS USED IN REMARKS
   TC - TEMPERATURE IN CELSIUS
  WCI - WIND CHILL INDEX
   HX - HEAT INDEX
  VSB - VISIBILITY



USA.gov is the U.S. government's official web portal to all federal, state and local government web resources and services.